Albany, GA

11:26 PM EDT on April 21, 2018 (GMT -0400)
Southwest Georgia Regional

Weather History for KABY - April, 2013

Change the Weather History Date:

Thursday, April 25, 2013

  Actual Average Record
Temperature  
Mean Temperature 68 °F 69 °F  
Max Temperature 80 °F 82 °F 92 °F (1958)
Min Temperature 55 °F 56 °F 37 °F (1986)
Degree Days  
Heating Degree Days 0 1  
Month to date heating degree days 63 62  
Since 1 July heating degree days 1687 1831  
Cooling Degree Days 3 5  
Month to date cooling degree days 64 76  
Year to date cooling degree days 103 114  
Growing Degree Days 20 (Base 50)    
Moisture  
Dew Point 60 °F    
Average Humidity 71    
Maximum Humidity 100    
Minimum Humidity 41    
Precipitation  
Precipitation 0.00 in 0.09 in 1.40 in (2003)
Month to date precipitation 2.33 3.25  
Year to date precipitation 15.25 17.28  
Sea Level Pressure  
Sea Level Pressure 30.20 in    
Wind  
Wind Speed 5 mph (WNW)    
Max Wind Speed 13 mph    
Max Gust Speed 17 mph    
Visibility 9 miles    
Events      
T = Trace of Precipitation, MM = Missing Value Source: NWS Daily Summary

Daily Weather History Graph

Daily Weather History Graph

Search for Another Location

Airport or City:

Astronomy

Apr. 25, 2013 Rise Set
Actual Time 6:57 AM EDT 8:12 PM EDT
Civil Twilight 6:31 AM EDT 8:38 PM EDT
Nautical Twilight 6:01 AM EDT 9:08 PM EDT
Astronomical Twilight 5:30 AM EDT 9:40 PM EDT
Moon 8:22 PM EDT (4/25) 6:39 AM EDT (4/25)
Length of Visible Light 14h 06m
Length of Day
13h 15m
Full, 100% of the Moon is Illuminated
Apr 25
Full
Apr 25
Full
May 2
Last Quarter
May 9
New
May 18
First Quarter

Hourly Weather History & Observations

Time (EDT) Temp. Heat Index Dew Point Humidity Pressure Visibility Wind Dir Wind Speed Gust Speed Precip Events Conditions
12:53 AM 69.1 °F - 64.0 °F 84% 30.15 in 10.0 mi SSW 4.6 mph - N/A   Overcast
1:53 AM 69.1 °F - 64.9 °F 87% 30.15 in 10.0 mi WSW 3.5 mph - N/A   Overcast
2:14 AM 69.8 °F - 64.4 °F 83% 30.15 in 10.0 mi SW 4.6 mph - N/A   Overcast
2:42 AM 69.8 °F - 64.4 °F 83% 30.14 in 10.0 mi WSW 3.5 mph - N/A   Scattered Clouds
2:53 AM 68.0 °F - 64.9 °F 90% 30.14 in 10.0 mi WSW 4.6 mph - N/A   Mostly Cloudy
3:02 AM 68.0 °F - 64.4 °F 88% 30.13 in 10.0 mi WSW 4.6 mph - N/A   Mostly Cloudy
3:17 AM 66.2 °F - 64.4 °F 94% 30.13 in 10.0 mi WSW 3.5 mph - N/A   Scattered Clouds
3:53 AM 66.0 °F - 64.0 °F 93% 30.13 in 8.0 mi West 3.5 mph - N/A   Clear
4:53 AM 64.0 °F - 64.0 °F 100% 30.14 in 5.0 mi SW 3.5 mph - N/A   Scattered Clouds
5:21 AM 64.4 °F - 64.4 °F 100% 30.15 in 5.0 mi WSW 3.5 mph - N/A   Scattered Clouds
5:31 AM 64.4 °F - 62.6 °F 94% 30.15 in 6.0 mi WSW 4.6 mph - N/A   Mostly Cloudy
5:53 AM 66.0 °F - 64.9 °F 96% 30.16 in 5.0 mi West 6.9 mph - N/A   Overcast
6:26 AM 66.2 °F - 64.4 °F 94% 30.18 in 6.0 mi WNW 6.9 mph - N/A   Overcast
6:48 AM 64.4 °F - 64.4 °F 100% 30.19 in 7.0 mi NW 6.9 mph - N/A   Overcast
6:53 AM 64.9 °F - 64.0 °F 97% 30.19 in 7.0 mi NW 5.8 mph - N/A   Overcast
7:53 AM 64.9 °F - 63.0 °F 93% 30.22 in 7.0 mi Calm Calm - N/A   Overcast
8:53 AM 66.0 °F - 63.0 °F 90% 30.23 in 8.0 mi NNW 4.6 mph - N/A   Overcast
9:02 AM 66.2 °F - 62.6 °F 88% 30.23 in 9.0 mi NNW 3.5 mph - N/A   Overcast
9:20 AM 66.2 °F - 62.6 °F 88% 30.23 in 9.0 mi NNW 4.6 mph - N/A   Overcast
9:53 AM 68.0 °F - 62.1 °F 81% 30.23 in 9.0 mi NE 3.5 mph - N/A   Overcast
10:53 AM 70.0 °F - 61.0 °F 73% 30.25 in 10.0 mi ENE 3.5 mph - N/A   Overcast
11:00 AM 69.8 °F - 60.8 °F 73% 30.25 in 10.0 mi NNE 3.5 mph - N/A   Overcast
11:53 AM 71.1 °F - 61.0 °F 70% 30.27 in 10.0 mi NW 5.8 mph - N/A   Overcast
12:26 PM 71.6 °F - 62.6 °F 73% 30.27 in 10.0 mi West 5.8 mph - N/A   Overcast
12:53 PM 73.0 °F - 61.0 °F 66% 30.26 in 10.0 mi Variable 6.9 mph - N/A   Mostly Cloudy
1:53 PM 75.0 °F - 61.0 °F 62% 30.24 in 10.0 mi NW 10.4 mph - N/A   Mostly Cloudy
2:53 PM 79.0 °F - 61.0 °F 54% 30.23 in 10.0 mi West 10.4 mph - N/A   Mostly Cloudy
3:53 PM 78.1 °F - 59.0 °F 52% 30.21 in 10.0 mi NNW 6.9 mph - N/A   Mostly Cloudy
4:53 PM 80.1 °F 80.4 °F 57.0 °F 45% 30.20 in 10.0 mi NNW 8.1 mph - N/A   Mostly Cloudy
5:53 PM 79.0 °F - 55.9 °F 45% 30.20 in 10.0 mi NNW 8.1 mph - N/A   Scattered Clouds
6:53 PM 78.1 °F - 54.0 °F 43% 30.21 in 10.0 mi NNW 8.1 mph - N/A   Clear
7:53 PM 73.0 °F - 48.9 °F 42% 30.22 in 10.0 mi NNW 4.6 mph - N/A   Clear
8:53 PM 68.0 °F - 46.9 °F 47% 30.24 in 10.0 mi NW 3.5 mph - N/A   Clear
9:53 PM 64.0 °F - 46.9 °F 54% 30.26 in 10.0 mi NW 4.6 mph - N/A   Clear
10:53 PM 60.1 °F - 45.0 °F 57% 30.27 in 10.0 mi NNW 5.8 mph - N/A   Clear
11:53 PM 60.1 °F - 42.1 °F 51% 30.27 in 10.0 mi NNW 3.5 mph - N/A   Clear